Location: ??????
(30.0081°N, 31.2109°E)
Time: 08:03:26
(UTC+00:00)

Cosmos 1515 - Pass Details

Date: 03 March 2021
Orbit: 504 x 516 km, 82.5° (Epoch: 15 April)

Event Time Altitude Azimuth Distance (km) Brightness Sun altitude
Rises 16:23:57 0° 5° (N) 2,631 7.2 -6.9°
Reaches altitude 10° 16:26:14 10° 15° (NNE) 1,739 6.2 -7.4°
Maximum altitude 16:29:42 33° 81° (E) 884 4.3 -8.2°
Drops below altitude 10° 16:33:08 10° 146° (SE) 1,723 6.0 -8.9°
Sets 16:35:23 0° 156° (SSE) 2,602 7.0 -9.4°
